Lid_Strength_Index
-0 -1 0 -0 -0 -0 -0 0 2 4 3 1 2 -1 -1 -1 -2 -1 -0 3 3 4 4 4 3 2 2 1 1 0 -1 -2 -1 -1 -1 -1 -1 -2
-0 -0 -1 -0 -0 -0 -0 0 1 2 3 1 1 -0 -1 -1 -2 -1 1 2 4 4 4 5 4 4 3 3 2 1 0 0 -0 -0 -1 -1 -1 -1
-1 -0 -0 -1 0 0 0 -0 0 1 3 1 1 -0 -1 -1 -1 -1 -2 -1 3 4 4 5 5 5 5 4 4 4 3 2 2 1 0 -0 -1 -1
0 -0 0 0 -1 -0 0 -0 0 0 1 2 1 1 -0 -1 -1 -1 -1 -0 3 4 4 4 5 6 6 6 6 6 6 5 4 3 2 2 1 -0
-0 0 0 0 -0 1 0 1 1 1 0 1 2 0 0 -0 -0 -1 -1 -0 1 3 4 4 4 5 6 7 8 8 9 8 7 6 5 5 4 3
-0 -0 -0 0 0 0 1 0 0 1 1 1 2 2 1 0 -0 1 1 -0 -0 0 2 1 2 3 4 6 6 7 8 9 9 9 8 8 7 6
-0 -0 -0 -0 1 1 -0 -0 -0 1 1 2 2 2 2 2 2 1 1 1 0 -0 -0 1 0 1 3 4 5 6 6 7 7 8 9 9 9 8
0 -0 -0 0 0 1 1 1 -0 0 1 2 2 3 2 1 1 1 1 2 3 -1 -0 1 1 4 4 5 7 7 7 7 7 8 8 8 8 9
-0 -0 0 0 0 -0 2 2 2 2 1 0 1 1 1 1 0 0 0 1 1 0 0 2 2 4 5 7 8 8 7 7 7 8 8 8 8 9
-0 -0 0 -0 0 1 -0 0 -0 0 1 0 -0 -0 0 -0 -0 -0 -0 0 -1 -0 -1 2 1 4 7 8 9 9 9 9 9 8 9 9 9 9
-0 2 2 3 6 4 0 0 0 0 7 6 6 6 6 5 2 -0 1 1 2 1 -0 1 1 3 5 7 9 9 9 10 10 9 10 10 10 10
1 3 7 8 8 7 1 1 1 0 1 1 1 3 3 4 3 2 3 2 2 2 2 2 1 3 4 3 6 8 8 10 10 10 9 9 10 8
4 5 7 9 10 9 8 3 3 2 4 3 3 2 3 5 5 5 4 4 4 4 6 3 2 3 3 3 2 4 5 8 7 8 9 9 9 8
5 6 8 10 11 10 8 9 8 6 3 3 4 5 6 6 6 6 5 5 5 4 3 2 3 4 4 4 4 4 5 5 5 4 4 8 7 7
8 9 10 11 10 9 9 8 7 5 4 6 6 6 5 6 4 5 4 4 5 6 6 3 4 5 6 5 5 5 6 6 5 5 4 4 4 3
7 7 8 8 8 7 6 5 4 4 4 5 6 7 6 6 5 5 4 6 5 5 4 5 3 4 6 6 5 5 5 5 5 5 5 4 3 4
7 6 6 6 6 6 6 6 4 4 4 4 4 5 5 4 4 3 4 5 6 5 6 5 4 4 4 4 6 5 5 5 5 4 3 4 4 4
7 8 8 7 7 6 6 6 8 7 7 7 7 7 5 5 6 4 4 4 6 7 6 6 5 6 6 6 7 6 5 6 5 4 4 5 5 3
7 7 7 8 8 7 7 7 8 8 8 8 8 8 8 9 9 9 9 8 8 7 6 5 6 7 8 9 8 9 7 6 6 6 5 6 6 5
5 5 5 6 6 6 6 6 7 7 6 6 6 6 7 7 7 8 8 8 8 7 7 6 7 6 7 7 7 7 9 6 7 6 6 5 4 5
3 3 3 3 3 3 3 3 3 4 4 4 4 4 5 6 6 7 6 9 8 6 6 6 7 9 6 5 7 6 7 8 5 6 6 7 7 6
2 2 1 1 1 1 1 1 2 2 2 2 2 2 2 4 5 5 5 5 5 5 5 4 3 4 4 4 5 4 4 4 5 5 5 5 6 8
2 1 1 0 0 0 0 1 2 2 2 2 3 3 3 4 4 4 5 5 4 5 5 4 4 4 4 4 5 5 4 3 3 3 2 2 2 2